Terminal Aerodrome Forecast
Issued by NWS Miami, FL

Home | Current Version | Previous Version | Text Only | Print | Product List | Glossary On
Versions: 1 2 3 4 5 6 7 8 9 10 11 12 13 14 15 16 17 18 19 20 21 22 23 24 25 26 27 28 29 30 31 32 33 34 35 36 37 38 39 40 41 42 43 44 45 46 47 48 49 50
000
FTUS42 KMFL 141120
TAFFLL
TAF
KFLL 141120Z 1412/1518 VRB03KT P6SM SKC
     FM141700 14005KT P6SM SKC
     FM150000 VRB03KT P6SM SKC
     FM151500 13005KT P6SM FEW045=

USA.gov is the U.S. government's official web portal to all federal, state and local government web resources and services.